Weather History for KMIE - August, 2014

Change the Weather History Date:

Wednesday, August 20, 2014

  Actual Average Record
Temperature  
Mean Temperature 75 °F 72 °F  
Max Temperature 84 °F 83 °F 97 °F (1983)
Min Temperature 65 °F 62 °F 48 °F (1992)
Degree Days  
Heating Degree Days 0 0  
Month to date heating degree days 8 0  
Since 1 June heating degree days 34 27  
Since 1 July heating degree days 26 3  
Cooling Degree Days 10 8  
Month to date cooling degree days 116 162  
Year to date cooling degree days 629 755  
Since 1 June cooling degree days 514 672  
Growing Degree Days 25 (Base 50)    
Moisture  
Dew Point 64 °F    
Average Humidity 69    
Maximum Humidity 87    
Minimum Humidity 51    
Precipitation  
Precipitation 0.00 in 0.11 in 2.92 in (1990)
Month to date precipitation 0.83 2.10  
Year to date precipitation 23.19 26.71  
Sea Level Pressure  
Sea Level Pressure 29.89 in    
Wind  
Wind Speed 8 mph (WSW)    
Max Wind Speed 18 mph    
Max Gust Speed 24 mph    
Visibility 10 miles    
Events      
T = Trace of Precipitation, MM = Missing Value Source: NWS Daily Summary

Daily Weather History Graph

Daily Weather History Graph

Search for Another Location

Airport or City:

Trip Planner

Search our weather history database for the weather conditions in past years. The results will help you decide how hot, cold, wet, or windy it might be!

Date:

Astronomy

Aug. 20, 2014 Rise Set
Actual Time 6:57 AM EDT 8:31 PM EDT
Civil Twilight 6:28 AM EDT 9:00 PM EDT
Nautical Twilight 5:54 AM EDT 9:34 PM EDT
Astronomical Twilight 5:17 AM EDT 10:11 PM EDT
Moon 2:36 AM EDT (8/20) 5:16 PM EDT (8/20)
Length of Visible Light 14h 31m
Length of Day
13h 33m
Waning Crescent, 21% of the Moon is Illuminated
Aug 20
Waning Crescent
Aug 25
New
Sep 2
First Quarter
Sep 8
Full
Sep 15
Last Quarter

Hourly Weather History & Observations

Time (EDT) Temp. Heat Index Dew Point Humidity Pressure Visibility Wind Dir Wind Speed Gust Speed Precip Events Conditions
12:53 AM 71.1 °F - 64.9 °F 81% 29.78 in 10.0 mi SW 8.1 mph - N/A   Clear
1:53 AM 70.0 °F - 64.0 °F 81% 29.79 in 10.0 mi WSW 6.9 mph - N/A   Clear
2:53 AM 69.1 °F - 64.0 °F 84% 29.79 in 10.0 mi SW 8.1 mph - N/A   Clear
3:53 AM 68.0 °F - 63.0 °F 84% 29.81 in 10.0 mi SSW 6.9 mph - N/A   Clear
4:53 AM 66.9 °F - 63.0 °F 87% 29.82 in 10.0 mi SW 8.1 mph - N/A   Clear
5:53 AM 66.0 °F - 63.0 °F 90% 29.83 in 10.0 mi SW 5.8 mph - N/A   Clear
6:53 AM 66.0 °F - 62.1 °F 87% 29.85 in 10.0 mi SW 4.6 mph - N/A   Clear
7:53 AM 66.0 °F - 63.0 °F 90% 29.86 in 10.0 mi SW 5.8 mph - N/A   Clear
8:53 AM 70.0 °F - 64.9 °F 84% 29.88 in 10.0 mi WSW 4.6 mph - N/A   Clear
9:53 AM 73.9 °F - 66.9 °F 79% 29.89 in 10.0 mi WSW 4.6 mph - N/A   Clear
10:53 AM 77.0 °F - 66.9 °F 71% 29.91 in 10.0 mi SW 6.9 mph - N/A   Clear
11:53 AM 80.1 °F 82.1 °F 66.0 °F 62% 29.91 in 10.0 mi West 10.4 mph - N/A   Clear
12:53 PM 82.0 °F 84.1 °F 66.0 °F 58% 29.92 in 10.0 mi West 12.7 mph 19.6 mph N/A   Partly Cloudy
1:53 PM 82.9 °F 84.4 °F 64.0 °F 53% 29.93 in 10.0 mi West 13.8 mph - N/A   Clear
2:53 PM 82.9 °F 84.6 °F 64.9 °F 54% 29.95 in 10.0 mi WSW 13.8 mph 24.2 mph N/A   Partly Cloudy
3:53 PM 84.0 °F 85.8 °F 64.9 °F 53% 29.92 in 10.0 mi WNW 12.7 mph 19.6 mph N/A   Partly Cloudy
4:53 PM 84.0 °F 86.5 °F 66.9 °F 56% 29.89 in 10.0 mi WNW 4.6 mph - N/A   Partly Cloudy
5:53 PM 82.9 °F 84.4 °F 64.0 °F 53% 29.89 in 10.0 mi WNW 12.7 mph - N/A   Clear
6:53 PM 82.0 °F 83.1 °F 63.0 °F 52% 29.88 in 10.0 mi West 6.9 mph - N/A   Clear
7:53 PM 79.0 °F - 63.0 °F 58% 29.90 in 10.0 mi West 9.2 mph - N/A   Clear
8:53 PM 77.0 °F - 63.0 °F 62% 29.94 in 10.0 mi WSW 8.1 mph - N/A   Clear
9:53 PM 75.0 °F - 64.9 °F 71% 29.95 in 10.0 mi SSW 6.9 mph - N/A   Clear
10:53 PM 73.0 °F - 64.9 °F 76% 29.99 in 10.0 mi SW 9.2 mph - N/A   Clear
11:53 PM 72.0 °F - 66.0 °F 81% 29.99 in 10.0 mi SW 4.6 mph - N/A   Clear